sat.trackr.live / text

‹ back to catalog

COSMOS 2503

NORAD 40420 · 2015-009A

PAYLOAD ACTIVE UNKNOWN

§ Identity

Operator
Country
CIS
Launch date
2015-02-27
Launch site
PLMSC
Launch vehicle
Mass (kg)
RCS (m²)
5.53

External: N2YO · Heavens-Above · Gunter

§ Orbital elements

Epoch: 2026-09-19T23:11:26.401056Z

Period
95.57 min
Inclination
97.8207°
Eccentricity
0.0014662
Mean motion
15.06821782 rev/d
Perigee alt
535.8 km
Apogee alt
556.1 km
Semi-major
6,924.1 km
B*
7.0701e-5
RAAN
321.2182°
Arg perigee
292.7878°
Mean anomaly
67.1800°
Rev number
63,320

§ Raw data

COSMOS 25031 40420U 15009A   26262.96627779  .00000989  00000+0  70701-4 0  99902 40420  97.8207 321.2182 0014662 292.7878  67.1800 15.06821782633202

JSON: /api/v1/satellites/40420 · /tle

For live sub-satellite position, see the globe view (requires WebGL).

§ Visibility from observer

Set your observer location to see the next 7 days of passes ≥ 10°. The values pass through the URL so the page stays shareable.

No JS? Fill the form by hand. The geolocation button needs JavaScript.